Home > Weather > Passo Fundo > Past weeks

Flag for Brazil Past Weather in Passo Fundo, Rio Grande do Sul, Brazil — Yesterday and Last 2 Weeks

Now
52 °F

Passing clouds.


Feels Like: 49 °F
Forecast: N/A
Wind: 8 mph from Southeast

Location: Porto Alegre Aero-Porto

Current Time: Jul 28, 2016 at 7:27:07 PM

Latest Report: Jul 28, 2016 at 7:00 PM


Visibility: N/A

Pressure: 30.30 "Hg (27.92 "Hg at 680m altitude)

Humidity: 72%

Dew Point: 43 °F

Location of Passo FundoLocation

Past Weather in Passo Fundo — Graph

°F

Passo Fundo Temperature Yesterday

Maximum temperature yesterday: 59 °F (at 2:00 PM)
Minimum temperature yesterday: 50 °F (at 9:00 PM)
Average temperature yesterday: 54 °F

High & Low Weather Summary for the Past Weeks

 TemperatureHumidityPressure
High75 °F (Jul 25, 2:00 PM)100% (Jul 14, 2:00 AM)30.33 "Hg (Jul 14, 2:00 AM)
Low41 °F (Jul 20, 6:00 AM)41% (Jul 15, 1:00 AM)29.71 "Hg (Jul 26, 4:00 AM)
Average54 °F79%30.11 "Hg
* Reported Jul 13 6:00 PM — Jul 28 6:00 PM, Passo Fundo, Weather by CustomWeather, © 2016

Note: Actual official high and low records may vary slightly from our data, if they occured in-between our weather recording intervals... More about our weather records

Advertising

Passo Fundo Weather History for the Previous 24 Hours

Scroll right to see more
 ConditionsComfort  
Time TempWeatherWind HumidityBarometerVisibility
6:00 PM
Thu, Jul 28
52 °FPassing clouds.7 mph67%30.30 "HgN/A
5:00 PM55 °FPassing clouds.8 mph63%30.30 "HgN/A
4:00 PM55 °FPartly sunny.8 mph59%30.27 "HgN/A
3:00 PM57 °FPartly sunny.7 mph55%30.27 "HgN/A
2:00 PM57 °FPartly sunny.3 mph59%30.30 "HgN/A
1:00 PM57 °FPartly sunny.3 mph59%30.30 "HgN/A
12:00 PM55 °FPartly sunny.1 mph67%30.33 "HgN/A
11:00 AM54 °FBroken clouds.1 mph72%30.33 "HgN/A
10:00 AM52 °FPartly sunny.3 mph82%30.33 "HgN/A
9:00 AM48 °FSunny.1 mph94%30.33 "Hg10 mi
8:00 AM43 °FSunny.No wind93%30.30 "Hg10 mi
7:00 AM41 °FPassing clouds.3 mph100%30.30 "HgN/A
6:00 AM41 °FClear.3 mph93%30.27 "Hg10 mi
5:00 AM43 °FClear.3 mph93%30.27 "Hg10 mi
4:00 AM43 °FClear.No wind93%30.27 "Hg10 mi
3:00 AM43 °FPassing clouds.No wind93%30.27 "HgN/A
2:00 AM45 °FClear.3 mph87%30.30 "Hg10 mi
1:00 AM45 °FClear.No wind87%30.30 "Hg10 mi
12:00 AM48 °FClear.2 mph76%30.30 "Hg10 mi
11:00 PM
Wed, Jul 27
50 °FClear.2 mph76%30.30 "Hg10 mi
10:00 PM50 °FClear.7 mph76%30.30 "Hg10 mi
9:00 PM50 °FClear.5 mph71%30.27 "Hg10 mi
8:00 PM54 °FClear.8 mph63%30.24 "Hg10 mi
7:00 PM54 °FPassing clouds.9 mph63%30.24 "HgN/A
Weather by CustomWeather, © 2016

See weather overviewHow to use our weather pages